Zurück zum Katalog

STARLINK-2219

AktivKommunikationVLEO
NORAD 48569·PAYLOAD·🇺🇸 United States

Gestartet May 15, 2021 von Cape Canaveral Space Force Station

Loading…

Nächste Überflüge (nächste 24 Stunden)

TLE

AktuellSource: CelesTrak SupGP

Epoche: Sep 14, 2026, 20:52 UTC

1 48569C 21041S   26257.86993056 -.00028013  00000+0 -90075-3 0  2574
2 48569  53.1608 326.3201 0001259  84.6632 344.6702 15.31718464    17

Verfolge STARLINK-2219 in Echtzeit mit AllMySat

Download on the App Store